Location: Équennes
(49.7375°N, 1.9622°E)
Time: 02:16:00
(UTC+00:00)

Cosmos 2227 Rocket - Pass Details

Date: 28 January 2023
Orbit: 839 x 844 km, 71.0° (Epoch: 31 March)

Event Time Altitude Azimuth Distance (km) Brightness Sun altitude
Rises 18:05:16 0° 323° (NW) 3,414 5.7 -13.8°
Reaches altitude 10° 18:08:02 10° 312° (NW) 2,474 5.1 -14.2°
Maximum altitude 18:12:44 28° 256° (WSW) 1,553 4.5 -14.9°
Drops below altitude 10° 18:17:25 10° 200° (SSW) 2,457 5.0 -15.7°
Sets 18:20:10 0° 189° (S) 3,387 5.6 -16.1°
